Ft Lauderdale, FL

8:31 PM EDT on October 19, 2017 (GMT -0400)
Fort Lauderdale-Hollywood International

Weather History for KFLL - December, 2013

Change the Weather History Date:

Sunday, December 8, 2013

  Actual Average Record
Temperature  
Mean Temperature 77 °F 72 °F  
Max Temperature 81 °F 79 °F 90 °F (1919)
Min Temperature 72 °F 66 °F 39 °F (2010)
Degree Days  
Heating Degree Days 0 1  
Month to date heating degree days 0 3  
Since 1 July heating degree days 4 5  
Cooling Degree Days 12 8  
Month to date cooling degree days 64 65  
Year to date cooling degree days 4416 4578  
Growing Degree Days 27 (Base 50)    
Moisture  
Dew Point 68 °F    
Average Humidity 73    
Maximum Humidity 87    
Minimum Humidity 58    
Precipitation  
Precipitation 0.00 in 0.09 in 1.50 in (1940)
Month to date precipitation 0.78 0.68  
Year to date precipitation 76.04 60.40  
Snow  
Snow 0.00 in - - ()
Month to date snowfall 0.0  
Since 1 July snowfall 0.0  
Snow Depth 0.00 in    
Sea Level Pressure  
Sea Level Pressure 30.16 in    
Wind  
Wind Speed 15 mph (ESE)    
Max Wind Speed 26 mph    
Max Gust Speed 29 mph    
Visibility 10 miles    
Events      
T = Trace of Precipitation, MM = Missing Value Source: NWS Daily Summary

Daily Weather History Graph

Daily Weather History Graph

Search for Another Location

Airport or City:

Trip Planner

Search our weather history database for the weather conditions in past years. The results will help you decide how hot, cold, wet, or windy it might be!

Date:

Astronomy

Dec. 08, 2013 Rise Set
Actual Time 6:55 AM EST 5:29 PM EST
Civil Twilight 6:30 AM EST 5:54 PM EST
Nautical Twilight 6:02 AM EST 6:23 PM EST
Astronomical Twilight 5:33 AM EST 6:51 PM EST
Moon 11:41 AM EST (12/8) 11:47 PM EST (12/8)
Length of Visible Light 11h 23m
Length of Day
10h 33m
Waxing Crescent, 40% of the Moon is Illuminated
Dec 8
Waxing Crescent
Dec 9
First Quarter
Dec 17
Full
Dec 25
Last Quarter
Jan 1
New

Hourly Weather History & Observations

Time (EST) Temp. Heat Index Dew Point Humidity Pressure Visibility Wind Dir Wind Speed Gust Speed Precip Events Conditions
12:53 AM 73.9 °F - 70.0 °F 87% 30.18 in 10.0 mi ESE 21.9 mph 27.6 mph N/A   Mostly Cloudy
1:53 AM 73.0 °F - 69.1 °F 87% 30.16 in 10.0 mi ESE 17.3 mph - N/A   Mostly Cloudy
2:53 AM 75.0 °F - 68.0 °F 79% 30.15 in 10.0 mi ESE 12.7 mph - N/A   Mostly Cloudy
3:53 AM 73.0 °F - 70.0 °F 90% 30.14 in 10.0 mi ENE 4.6 mph - N/A   Mostly Cloudy
4:53 AM 75.0 °F - 68.0 °F 79% 30.14 in 10.0 mi ESE 10.4 mph - N/A   Mostly Cloudy
5:53 AM 75.0 °F - 64.0 °F 69% 30.15 in 10.0 mi ESE 11.5 mph - N/A   Partly Cloudy
6:53 AM 75.0 °F - 66.0 °F 73% 30.17 in 10.0 mi ESE 13.8 mph - N/A   Partly Cloudy
7:53 AM 75.9 °F - 66.9 °F 74% 30.19 in 10.0 mi ESE 11.5 mph - N/A   Partly Cloudy
8:53 AM 78.1 °F - 68.0 °F 71% 30.21 in 10.0 mi ESE 13.8 mph - N/A   Scattered Clouds
9:53 AM 80.1 °F 82.7 °F 68.0 °F 67% 30.21 in 10.0 mi ESE 16.1 mph - N/A   Scattered Clouds
10:53 AM 80.1 °F 82.3 °F 66.9 °F 64% 30.20 in 10.0 mi SE 17.3 mph - N/A   Scattered Clouds
11:53 AM 80.1 °F 82.9 °F 69.1 °F 69% 30.18 in 10.0 mi ESE 16.1 mph - N/A   Scattered Clouds
12:53 PM 81.0 °F 83.3 °F 66.9 °F 62% 30.15 in 10.0 mi ESE 15.0 mph - N/A   Scattered Clouds
1:53 PM 81.0 °F 83.3 °F 66.9 °F 62% 30.14 in 10.0 mi SE 17.3 mph 24.2 mph N/A   Partly Cloudy
2:53 PM 80.1 °F 82.1 °F 66.0 °F 62% 30.13 in 10.0 mi SE 15.0 mph - N/A   Scattered Clouds
3:53 PM 80.1 °F 81.9 °F 64.9 °F 60% 30.13 in 10.0 mi SE 12.7 mph - N/A   Scattered Clouds
4:53 PM 78.1 °F - 66.9 °F 68% 30.13 in 10.0 mi SE 13.8 mph - N/A   Partly Cloudy
5:53 PM 77.0 °F - 68.0 °F 74% 30.13 in 10.0 mi ESE 12.7 mph - N/A   Partly Cloudy
6:53 PM 77.0 °F - 69.1 °F 76% 30.14 in 10.0 mi ESE 15.0 mph - N/A   Mostly Cloudy
7:53 PM 77.0 °F - 70.0 °F 79% 30.16 in 10.0 mi ESE 13.8 mph - N/A   Scattered Clouds
8:53 PM 77.0 °F - 70.0 °F 79% 30.17 in 10.0 mi ESE 16.1 mph - N/A   Scattered Clouds
9:53 PM 78.1 °F - 70.0 °F 76% 30.17 in 10.0 mi ESE 16.1 mph - N/A   Mostly Cloudy
10:53 PM 78.1 °F - 69.1 °F 74% 30.17 in 10.0 mi ESE 18.4 mph 24.2 mph N/A   Mostly Cloudy
11:53 PM 77.0 °F - 69.1 °F 76% 30.15 in 10.0 mi SE 19.6 mph - N/A   Mostly Cloudy